Time,TemperatureF,DewpointF,PressureIn,WindDirection,WindDirectionDegrees,WindSpeedMPH,WindSpeedGustMPH,Humidity,HourlyPrecipIn,Conditions,Clouds,dailyrainin,SoftwareType,DateUTC
2013-04-02 00:03:00,49.8,47.3,30.15,SSE,158,0.0,0.0,91,0.00,,---,0.00,VWS V14.01,2013-04-02 07:03:00,
2013-04-02 00:08:00,49.8,47.3,30.15,SE,135,0.0,0.0,91,0.00,,---,0.00,VWS V14.01,2013-04-02 07:08:00,
2013-04-02 00:13:00,49.8,47.3,30.15,SE,135,0.0,0.0,91,0.00,,---,0.00,VWS V14.01,2013-04-02 07:13:00,
2013-04-02 00:18:00,49.6,47.1,30.15,ESE,112,0.0,0.0,91,0.00,,---,0.00,VWS V14.01,2013-04-02 07:18:00,
2013-04-02 00:23:00,49.8,47.3,30.15,ESE,112,0.0,0.0,91,0.00,,---,0.00,VWS V14.01,2013-04-02 07:23:00,
2013-04-02 00:28:00,49.8,47.3,30.15,ESE,112,0.0,0.0,91,0.00,,---,0.00,VWS V14.01,2013-04-02 07:28:00,
2013-04-02 00:33:00,49.8,47.6,30.15,ESE,112,2.0,2.0,92,0.00,,---,0.00,VWS V14.01,2013-04-02 07:33:00,
2013-04-02 00:39:00,49.6,47.4,30.15,ESE,112,1.1,2.7,92,0.00,,---,0.00,VWS V14.01,2013-04-02 07:39:00,
2013-04-02 00:44:00,49.5,47.2,30.15,ESE,112,0.0,2.0,92,0.00,,---,0.00,VWS V14.01,2013-04-02 07:44:00,
2013-04-02 00:49:00,49.6,47.4,30.15,ESE,112,0.0,2.0,92,0.00,,---,0.00,VWS V14.01,2013-04-02 07:49:00,
2013-04-02 00:54:00,49.6,47.4,30.15,ESE,112,0.0,0.0,92,0.00,,---,0.00,VWS V14.01,2013-04-02 07:54:00,
2013-04-02 00:59:00,49.6,47.4,30.15,ESE,112,0.0,0.0,92,0.00,,---,0.00,VWS V14.01,2013-04-02 07:59:00,
2013-04-02 01:04:00,49.6,47.4,30.15,ESE,112,0.0,0.0,92,0.00,,---,0.00,VWS V14.01,2013-04-02 08:04:00,
2013-04-02 01:10:00,49.6,47.4,30.15,ESE,112,0.0,0.0,92,0.00,,---,0.00,VWS V14.01,2013-04-02 08:10:00,
2013-04-02 01:15:00,49.5,47.2,30.15,East,90,0.0,0.0,92,0.00,,---,0.00,VWS V14.01,2013-04-02 08:15:00,
2013-04-02 01:20:00,49.6,47.4,30.15,East,90,0.0,0.0,92,0.00,,---,0.00,VWS V14.01,2013-04-02 08:20:00,
2013-04-02 01:25:00,49.6,47.4,30.15,WSW,248,0.0,0.0,92,0.00,,---,0.00,VWS V14.01,2013-04-02 08:25:00,
2013-04-02 01:31:00,49.5,47.2,30.15,WSW,248,0.0,0.0,92,0.00,,---,0.00,VWS V14.01,2013-04-02 08:31:00,
2013-04-02 01:36:00,49.6,47.4,30.15,WSW,248,0.0,0.0,92,0.00,,---,0.00,VWS V14.01,2013-04-02 08:36:00,
2013-04-02 01:41:00,49.5,47.2,30.15,WSW,248,0.0,0.0,92,0.00,,---,0.00,VWS V14.01,2013-04-02 08:41:00,
2013-04-02 01:46:00,49.3,47.1,30.15,WSW,248,0.0,0.0,92,0.00,,---,0.00,VWS V14.01,2013-04-02 08:46:00,
2013-04-02 01:51:00,49.3,47.3,30.15,WSW,248,0.0,0.0,93,0.00,,---,0.00,VWS V14.01,2013-04-02 08:51:00,
2013-04-02 01:56:00,49.5,47.5,30.15,WSW,248,0.0,1.1,93,0.00,,---,0.00,VWS V14.01,2013-04-02 08:56:00,
2013-04-02 02:01:00,49.3,47.3,30.15,WSW,248,0.0,0.0,93,0.00,,---,0.00,VWS V14.01,2013-04-02 09:01:00,
2013-04-02 02:06:00,49.1,47.2,30.15,WSW,248,1.3,1.3,93,0.00,,---,0.00,VWS V14.01,2013-04-02 09:06:00,
2013-04-02 02:12:00,49.3,47.3,30.15,WSW,248,0.0,0.0,93,0.00,,---,0.00,VWS V14.01,2013-04-02 09:12:00,
2013-04-02 02:17:00,49.1,47.2,30.15,WSW,248,0.0,1.1,93,0.00,,---,0.00,VWS V14.01,2013-04-02 09:17:00,
2013-04-02 02:22:00,48.9,47.0,30.18,WSW,248,0.0,0.0,93,0.00,,---,0.00,VWS V14.01,2013-04-02 09:22:00,
2013-04-02 02:27:00,48.9,47.3,30.18,WSW,248,0.0,0.0,94,0.00,,---,0.00,VWS V14.01,2013-04-02 09:27:00,
2013-04-02 02:32:00,48.9,47.3,30.18,WSW,248,0.0,0.0,94,0.00,,---,0.00,VWS V14.01,2013-04-02 09:32:00,
2013-04-02 02:37:00,48.9,47.0,30.18,WSW,248,0.0,0.0,93,0.00,,---,0.00,VWS V14.01,2013-04-02 09:37:00,
2013-04-02 02:42:00,48.9,47.3,30.18,WSW,248,0.0,0.0,94,0.00,,---,0.00,VWS V14.01,2013-04-02 09:42:00,
2013-04-02 02:48:00,48.9,47.0,30.18,WSW,248,0.0,0.9,93,0.00,,---,0.00,VWS V14.01,2013-04-02 09:48:00,
2013-04-02 02:53:00,48.7,46.8,30.18,WSW,248,0.0,1.3,93,0.00,,---,0.00,VWS V14.01,2013-04-02 09:53:00,
2013-04-02 02:58:00,48.7,46.8,30.18,WSW,248,0.0,1.3,93,0.00,,---,0.00,VWS V14.01,2013-04-02 09:58:00,
2013-04-02 03:03:00,48.7,46.8,30.18,WSW,248,0.0,0.0,93,0.00,,---,0.00,VWS V14.01,2013-04-02 10:03:00,
2013-04-02 03:08:00,48.7,46.8,30.18,WSW,248,0.0,1.1,93,0.00,,---,0.00,VWS V14.01,2013-04-02 10:08:00,
2013-04-02 03:13:00,48.9,47.0,30.18,WSW,248,0.0,0.0,93,0.00,,---,0.00,VWS V14.01,2013-04-02 10:13:00,
2013-04-02 03:18:00,48.9,47.0,30.18,WSW,248,0.0,0.0,93,0.00,,---,0.00,VWS V14.01,2013-04-02 10:18:00,
2013-04-02 03:24:00,48.9,47.0,30.18,WSW,248,0.0,0.0,93,0.00,,---,0.00,VWS V14.01,2013-04-02 10:24:00,
2013-04-02 03:29:00,48.7,46.8,30.18,WSW,248,0.0,0.0,93,0.00,,---,0.00,VWS V14.01,2013-04-02 10:29:00,
2013-04-02 03:34:00,48.9,47.0,30.18,WSW,248,0.0,0.0,93,0.00,,---,0.00,VWS V14.01,2013-04-02 10:34:00,
2013-04-02 03:39:00,48.9,47.0,30.18,WSW,248,0.0,0.0,93,0.00,,---,0.00,VWS V14.01,2013-04-02 10:39:00,
2013-04-02 03:45:00,48.7,46.8,30.18,WSW,248,0.0,0.0,93,0.00,,---,0.00,VWS V14.01,2013-04-02 10:45:00,
2013-04-02 03:50:00,48.7,46.8,30.18,WSW,248,0.0,0.0,93,0.00,,---,0.00,VWS V14.01,2013-04-02 10:50:00,
2013-04-02 03:55:00,48.7,46.8,30.18,WSW,248,0.0,0.0,93,0.00,,---,0.00,VWS V14.01,2013-04-02 10:55:00,
2013-04-02 04:00:00,48.9,47.3,30.18,East,90,1.6,1.6,94,0.00,,---,0.00,VWS V14.01,2013-04-02 11:00:00,
2013-04-02 04:05:00,48.9,47.3,30.18,East,90,0.0,1.6,94,0.00,,---,0.00,VWS V14.01,2013-04-02 11:05:00,
2013-04-02 04:10:00,48.9,47.3,30.18,East,90,0.0,0.0,94,0.00,,---,0.00,VWS V14.01,2013-04-02 11:10:00,
2013-04-02 04:15:00,48.9,47.3,30.18,East,90,1.1,1.1,94,0.00,,---,0.00,VWS V14.01,2013-04-02 11:15:00,
2013-04-02 04:20:00,48.9,47.3,30.18,East,90,1.6,1.6,94,0.00,,---,0.00,VWS V14.01,2013-04-02 11:20:00,
2013-04-02 04:25:00,48.9,47.3,30.18,East,90,0.9,1.6,94,0.00,,---,0.00,VWS V14.01,2013-04-02 11:25:00,
2013-04-02 04:31:00,48.7,47.1,30.18,East,90,2.0,2.0,94,0.00,,---,0.00,VWS V14.01,2013-04-02 11:31:00,
2013-04-02 04:36:00,48.7,47.1,30.15,East,90,1.1,2.2,94,0.00,,---,0.00,VWS V14.01,2013-04-02 11:36:00,
2013-04-02 04:42:00,48.7,47.1,30.15,ESE,112,1.1,1.3,94,0.00,,---,0.00,VWS V14.01,2013-04-02 11:42:00,
2013-04-02 04:47:00,48.6,46.9,30.15,East,90,0.0,1.3,94,0.00,,---,0.00,VWS V14.01,2013-04-02 11:47:00,
2013-04-02 04:52:00,48.6,46.9,30.15,East,90,0.0,1.3,94,0.00,,---,0.00,VWS V14.01,2013-04-02 11:52:00,
2013-04-02 04:57:00,48.6,46.9,30.15,East,90,0.0,1.3,94,0.00,,---,0.00,VWS V14.01,2013-04-02 11:57:00,
2013-04-02 05:02:00,48.7,47.1,30.15,SW,225,0.0,0.0,94,0.00,,---,0.00,VWS V14.01,2013-04-02 12:02:00,
2013-04-02 05:07:00,48.7,47.1,30.15,SW,225,0.0,0.0,94,0.00,,---,0.00,VWS V14.01,2013-04-02 12:07:00,
2013-04-02 05:12:00,48.7,47.1,30.15,SW,225,0.0,0.0,94,0.00,,---,0.00,VWS V14.01,2013-04-02 12:12:00,
2013-04-02 05:18:00,48.7,47.1,30.15,SW,225,0.0,0.0,94,0.00,,---,0.00,VWS V14.01,2013-04-02 12:18:00,
2013-04-02 05:23:00,48.7,47.1,30.15,SW,225,0.0,0.0,94,0.00,,---,0.00,VWS V14.01,2013-04-02 12:23:00,
2013-04-02 05:28:00,48.7,47.1,30.15,South,180,0.0,0.0,94,0.00,,---,0.00,VWS V14.01,2013-04-02 12:28:00,
2013-04-02 05:33:00,48.7,47.1,30.15,East,90,0.0,0.0,94,0.00,,---,0.00,VWS V14.01,2013-04-02 12:33:00,
2013-04-02 05:38:00,48.7,47.1,30.15,East,90,0.0,0.0,94,0.00,,---,0.00,VWS V14.01,2013-04-02 12:38:00,
2013-04-02 05:43:00,48.7,47.1,30.15,WSW,248,0.0,0.0,94,0.00,,---,0.00,VWS V14.01,2013-04-02 12:43:00,
2013-04-02 05:48:00,48.7,47.1,30.15,WSW,248,0.0,0.0,94,0.00,,---,0.00,VWS V14.01,2013-04-02 12:48:00,
2013-04-02 05:53:00,48.7,47.1,30.15,WSW,248,0.0,0.0,94,0.00,,---,0.00,VWS V14.01,2013-04-02 12:53:00,
2013-04-02 05:59:00,48.7,47.1,30.15,WSW,248,0.0,0.0,94,0.00,,---,0.00,VWS V14.01,2013-04-02 12:59:00,
2013-04-02 06:04:00,48.7,47.1,30.15,WSW,248,0.0,0.0,94,0.00,,---,0.00,VWS V14.01,2013-04-02 13:04:00,
2013-04-02 06:09:00,48.7,47.4,30.15,WSW,248,0.0,0.0,95,0.00,,---,0.00,VWS V14.01,2013-04-02 13:09:00,
2013-04-02 06:14:00,48.7,47.4,30.15,WSW,248,0.0,0.0,95,0.00,,---,0.00,VWS V14.01,2013-04-02 13:14:00,
2013-04-02 06:19:00,48.7,47.4,30.15,WSW,248,0.0,0.0,95,0.00,,---,0.00,VWS V14.01,2013-04-02 13:19:00,
2013-04-02 06:25:00,48.7,47.4,30.15,WSW,248,0.0,0.0,95,0.00,,---,0.00,VWS V14.01,2013-04-02 13:25:00,
2013-04-02 06:30:00,48.7,47.4,30.15,WSW,248,0.0,0.0,95,0.00,,---,0.00,VWS V14.01,2013-04-02 13:30:00,
2013-04-02 06:35:00,48.7,47.4,30.15,WSW,248,0.0,0.0,95,0.00,,---,0.00,VWS V14.01,2013-04-02 13:35:00,
2013-04-02 06:40:00,48.7,47.4,30.15,WSW,248,0.0,0.0,95,0.00,,---,0.00,VWS V14.01,2013-04-02 13:40:00,
2013-04-02 06:46:00,48.7,47.4,30.15,WSW,248,0.0,0.0,95,0.00,,---,0.00,VWS V14.01,2013-04-02 13:46:00,
2013-04-02 06:51:00,48.7,47.4,30.15,South,180,0.0,0.0,95,0.00,,---,0.00,VWS V14.01,2013-04-02 13:51:00,
2013-04-02 06:56:00,48.7,47.4,30.15,ESE,112,0.0,1.3,95,0.00,,---,0.00,VWS V14.01,2013-04-02 13:56:00,
2013-04-02 07:01:00,48.7,47.4,30.15,SE,135,2.5,2.5,95,0.00,,---,0.00,VWS V14.01,2013-04-02 14:01:00,
2013-04-02 07:07:00,48.7,47.4,30.15,SE,135,0.0,2.5,95,0.00,,---,0.00,VWS V14.01,2013-04-02 14:07:00,
2013-04-02 07:12:00,48.7,47.4,30.15,SE,135,0.0,0.0,95,0.00,,---,0.00,VWS V14.01,2013-04-02 14:12:00,
2013-04-02 07:17:00,48.9,47.5,30.15,SE,135,0.0,0.0,95,0.00,,---,0.00,VWS V14.01,2013-04-02 14:17:00,
2013-04-02 07:22:00,48.7,47.4,30.15,SE,135,1.1,1.1,95,0.00,,---,0.00,VWS V14.01,2013-04-02 14:22:00,
2013-04-02 07:27:00,48.7,47.4,30.15,SSE,158,1.1,1.1,95,0.00,,---,0.00,VWS V14.01,2013-04-02 14:27:00,
2013-04-02 07:33:00,48.7,47.1,30.15,ESE,112,0.0,1.1,94,0.00,,---,0.00,VWS V14.01,2013-04-02 14:33:00,
2013-04-02 07:38:00,48.9,47.3,30.15,ESE,112,0.0,3.6,94,0.00,,---,0.00,VWS V14.01,2013-04-02 14:38:00,
2013-04-02 07:43:00,48.9,47.3,30.15,SE,135,1.1,1.1,94,0.00,,---,0.00,VWS V14.01,2013-04-02 14:43:00,
2013-04-02 07:48:00,48.9,47.3,30.15,ESE,112,0.0,1.1,94,0.00,,---,0.00,VWS V14.01,2013-04-02 14:48:00,
2013-04-02 07:53:00,48.9,47.3,30.15,ESE,112,0.0,0.0,94,0.00,,---,0.00,VWS V14.01,2013-04-02 14:53:00,
2013-04-02 07:59:00,48.9,47.3,30.15,ESE,112,0.0,1.1,94,0.00,,---,0.00,VWS V14.01,2013-04-02 14:59:00,
2013-04-02 08:04:00,48.9,47.3,30.15,SE,135,0.0,1.1,94,0.00,,---,0.00,VWS V14.01,2013-04-02 15:04:00,
2013-04-02 08:09:00,48.9,47.3,30.15,ESE,112,0.9,1.1,94,0.00,,---,0.00,VWS V14.01,2013-04-02 15:09:00,
2013-04-02 08:14:00,49.1,47.5,30.15,ESE,112,1.1,2.0,94,0.00,,---,0.00,VWS V14.01,2013-04-02 15:14:00,
2013-04-02 08:19:00,49.3,47.6,30.15,East,90,0.0,2.2,94,0.00,,---,0.00,VWS V14.01,2013-04-02 15:19:00,
2013-04-02 08:24:00,49.5,47.8,30.15,ESE,112,0.0,1.1,94,0.00,,---,0.00,VWS V14.01,2013-04-02 15:24:00,
2013-04-02 08:29:00,49.3,47.6,30.15,SE,135,0.0,1.1,94,0.00,,---,0.00,VWS V14.01,2013-04-02 15:29:00,
2013-04-02 08:35:00,49.5,47.8,30.18,SE,135,0.0,2.0,94,0.00,,---,0.00,VWS V14.01,2013-04-02 15:35:00,
2013-04-02 08:40:00,49.3,47.6,30.18,SE,135,1.3,2.0,94,0.00,,---,0.00,VWS V14.01,2013-04-02 15:40:00,
2013-04-02 08:45:00,49.5,47.8,30.18,SE,135,0.0,1.3,94,0.00,,---,0.00,VWS V14.01,2013-04-02 15:45:00,
2013-04-02 08:51:00,49.6,48.0,30.18,WSW,248,0.0,0.0,94,0.00,,---,0.00,VWS V14.01,2013-04-02 15:51:00,
2013-04-02 08:56:00,49.6,48.0,30.18,SE,135,1.1,1.1,94,0.00,,---,0.00,VWS V14.01,2013-04-02 15:56:00,
2013-04-02 09:01:00,49.6,48.0,30.18,SE,135,0.0,0.0,94,0.00,,---,0.00,VWS V14.01,2013-04-02 16:01:00,
2013-04-02 09:06:00,49.6,48.0,30.18,South,180,0.0,0.0,94,0.00,,---,0.00,VWS V14.01,2013-04-02 16:06:00,
2013-04-02 09:12:00,49.8,48.2,30.18,South,180,0.0,0.0,94,0.00,,---,0.00,VWS V14.01,2013-04-02 16:12:00,
2013-04-02 09:17:00,49.8,48.2,30.18,SSW,202,0.9,0.9,94,0.00,,---,0.00,VWS V14.01,2013-04-02 16:17:00,
2013-04-02 09:23:00,50.0,48.3,30.18,SSW,202,0.0,0.0,94,0.00,,---,0.00,VWS V14.01,2013-04-02 16:23:00,
2013-04-02 09:28:00,50.2,48.5,30.18,WSW,248,0.0,1.6,94,0.00,,---,0.00,VWS V14.01,2013-04-02 16:28:00,
2013-04-02 09:33:00,50.2,48.5,30.18,WSW,248,0.0,0.0,94,0.00,,---,0.00,VWS V14.01,2013-04-02 16:33:00,
2013-04-02 09:39:00,50.2,48.5,30.18,WSW,248,0.0,0.9,94,0.00,,---,0.00,VWS V14.01,2013-04-02 16:39:00,
2013-04-02 09:44:00,50.2,48.2,30.18,NNW,338,0.0,2.2,93,0.00,,---,0.00,VWS V14.01,2013-04-02 16:44:00,
2013-04-02 09:50:00,50.2,48.2,30.18,NNW,338,1.3,2.2,93,0.00,,---,0.00,VWS V14.01,2013-04-02 16:50:00,
2013-04-02 09:55:00,50.0,48.1,30.18,WNW,292,2.9,3.1,93,0.00,,---,0.00,VWS V14.01,2013-04-02 16:55:00,
2013-04-02 10:00:00,50.0,48.1,30.18,WNW,292,2.9,2.9,93,0.00,,---,0.00,VWS V14.01,2013-04-02 17:00:00,
2013-04-02 10:05:00,50.2,48.2,30.18,WNW,292,1.6,2.9,93,0.00,,---,0.00,VWS V14.01,2013-04-02 17:05:00,
2013-04-02 10:11:00,50.4,48.4,30.18,WNW,292,0.0,0.0,93,0.00,,---,0.00,VWS V14.01,2013-04-02 17:11:00,
2013-04-02 10:16:00,50.5,48.6,30.18,NNW,338,0.0,2.0,93,0.00,,---,0.00,VWS V14.01,2013-04-02 17:16:00,
2013-04-02 10:21:00,50.4,48.4,30.18,WNW,292,2.5,3.8,93,0.00,,---,0.00,VWS V14.01,2013-04-02 17:21:00,
2013-04-02 10:27:00,50.5,48.6,30.18,WNW,292,2.0,3.8,93,0.00,,---,0.00,VWS V14.01,2013-04-02 17:27:00,
2013-04-02 10:32:00,50.7,48.8,30.18,WNW,292,0.0,0.0,93,0.00,,---,0.00,VWS V14.01,2013-04-02 17:32:00,
2013-04-02 10:37:00,50.9,49.0,30.18,WNW,292,2.9,2.9,93,0.00,,---,0.00,VWS V14.01,2013-04-02 17:37:00,
2013-04-02 10:42:00,51.1,49.1,30.18,WNW,292,0.0,0.0,93,0.00,,---,0.00,VWS V14.01,2013-04-02 17:42:00,
2013-04-02 10:48:00,51.3,49.0,30.18,WNW,292,0.0,2.7,92,0.00,,---,0.00,VWS V14.01,2013-04-02 17:48:00,
2013-04-02 10:53:00,51.1,48.8,30.21,WSW,248,3.1,3.1,92,0.00,,---,0.00,VWS V14.01,2013-04-02 17:53:00,
2013-04-02 10:58:00,50.9,48.7,30.21,WNW,292,2.5,3.1,92,0.00,,---,0.00,VWS V14.01,2013-04-02 17:58:00,
2013-04-02 11:04:00,50.9,48.7,30.21,WNW,292,1.6,2.5,92,0.00,,---,0.00,VWS V14.01,2013-04-02 18:04:00,
2013-04-02 11:09:00,50.7,48.5,30.21,NNW,338,0.0,2.5,92,0.00,,---,0.00,VWS V14.01,2013-04-02 18:09:00,
2013-04-02 11:14:00,50.4,48.1,30.21,NW,315,1.6,4.3,92,0.00,,---,0.00,VWS V14.01,2013-04-02 18:14:00,
2013-04-02 11:20:00,50.4,48.1,30.21,NW,315,0.9,4.3,92,0.00,,---,0.00,VWS V14.01,2013-04-02 18:20:00,
2013-04-02 11:25:00,50.4,48.1,30.21,NW,315,0.0,3.6,92,0.00,,---,0.00,VWS V14.01,2013-04-02 18:25:00,
2013-04-02 11:30:00,50.4,48.1,30.21,NW,315,3.8,3.8,92,0.00,,---,0.00,VWS V14.01,2013-04-02 18:30:00,
2013-04-02 11:35:00,50.4,48.1,30.21,NNW,338,1.1,3.8,92,0.00,,---,0.00,VWS V14.01,2013-04-02 18:35:00,
2013-04-02 11:41:00,50.4,48.1,30.21,NNW,338,2.5,2.9,92,0.00,,---,0.00,VWS V14.01,2013-04-02 18:41:00,
2013-04-02 11:47:00,50.5,48.3,30.21,NNW,338,1.6,4.7,92,0.00,,---,0.00,VWS V14.01,2013-04-02 18:47:00,
2013-04-02 11:52:00,50.7,48.5,30.21,North,0,3.4,3.8,92,0.00,,---,0.00,VWS V14.01,2013-04-02 18:52:00,
2013-04-02 11:57:00,50.7,48.2,30.21,WNW,292,3.6,3.8,91,0.00,,---,0.00,VWS V14.01,2013-04-02 18:57:00,
2013-04-02 12:02:00,50.5,48.0,30.21,NNW,338,2.0,4.0,91,0.00,,---,0.00,VWS V14.01,2013-04-02 19:02:00,
2013-04-02 12:08:00,51.3,48.7,30.21,NW,315,2.9,4.0,91,0.00,,---,0.00,VWS V14.01,2013-04-02 19:08:00,
2013-04-02 12:13:00,51.6,49.1,30.21,WNW,292,1.1,1.6,91,0.00,,---,0.00,VWS V14.01,2013-04-02 19:13:00,
2013-04-02 12:18:00,52.0,49.1,30.21,NNW,338,2.7,3.4,90,0.00,,---,0.00,VWS V14.01,2013-04-02 19:18:00,
2013-04-02 12:23:00,52.0,48.8,30.21,WNW,292,4.7,4.7,89,0.00,,---,0.00,VWS V14.01,2013-04-02 19:23:00,
2013-04-02 12:28:00,52.0,48.5,30.21,WNW,292,1.3,4.7,88,0.00,,---,0.00,VWS V14.01,2013-04-02 19:28:00,
2013-04-02 12:34:00,52.3,48.9,30.21,WNW,292,0.9,3.4,88,0.00,,---,0.00,VWS V14.01,2013-04-02 19:34:00,
2013-04-02 12:39:00,52.5,49.1,30.21,North,0,2.0,3.4,88,0.00,,---,0.00,VWS V14.01,2013-04-02 19:39:00,
2013-04-02 12:47:00,52.9,49.1,30.21,WNW,292,2.0,3.6,87,0.00,,---,0.00,VWS V14.01,2013-04-02 19:47:00,
2013-04-02 12:52:00,53.2,49.2,30.21,WNW,292,0.0,2.0,86,0.00,,---,0.00,VWS V14.01,2013-04-02 19:52:00,
2013-04-02 12:57:00,53.1,48.7,30.21,NW,315,4.5,4.5,85,0.00,,---,0.00,VWS V14.01,2013-04-02 19:57:00,
2013-04-02 13:02:00,53.1,48.7,30.21,WNW,292,2.0,3.1,85,0.00,,---,0.00,VWS V14.01,2013-04-02 20:02:00,
2013-04-02 13:08:00,53.1,48.0,30.21,NW,315,4.0,4.0,83,0.00,,---,0.00,VWS V14.01,2013-04-02 20:08:00,
2013-04-02 13:13:00,53.8,48.8,30.21,WNW,292,0.0,2.2,83,0.00,,---,0.00,VWS V14.01,2013-04-02 20:13:00,
2013-04-02 13:18:00,54.1,49.1,30.18,WNW,292,4.9,4.9,83,0.00,,---,0.00,VWS V14.01,2013-04-02 20:18:00,
2013-04-02 13:23:00,54.1,48.5,30.18,WNW,292,2.2,2.5,81,0.00,,---,0.00,VWS V14.01,2013-04-02 20:23:00,
2013-04-02 13:29:00,54.1,48.8,30.18,NNW,338,3.6,6.5,82,0.00,,---,0.00,VWS V14.01,2013-04-02 20:29:00,
2013-04-02 13:34:00,54.0,48.3,30.18,NNE,22,1.3,5.4,81,0.00,,---,0.00,VWS V14.01,2013-04-02 20:34:00,
2013-04-02 13:39:00,54.1,48.8,30.18,NNW,338,2.9,5.4,82,0.00,,---,0.00,VWS V14.01,2013-04-02 20:39:00,
2013-04-02 13:45:00,53.6,48.2,30.18,NNW,338,4.0,4.0,82,0.00,,---,0.00,VWS V14.01,2013-04-02 20:45:00,
2013-04-02 13:50:00,53.1,47.7,30.18,WNW,292,2.7,5.4,82,0.00,,---,0.00,VWS V14.01,2013-04-02 20:50:00,
2013-04-02 13:55:00,53.2,48.2,30.18,WNW,292,2.5,3.8,83,0.00,,---,0.00,VWS V14.01,2013-04-02 20:55:00,
2013-04-02 14:00:00,52.9,47.5,30.18,NNW,338,5.4,5.6,82,0.00,,---,0.00,VWS V14.01,2013-04-02 21:00:00,
2013-04-02 14:05:00,52.3,47.0,30.18,WNW,292,4.0,8.5,82,0.00,,---,0.00,VWS V14.01,2013-04-02 21:05:00,
2013-04-02 14:11:00,52.9,47.9,30.18,WNW,292,3.8,3.8,83,0.00,,---,0.00,VWS V14.01,2013-04-02 21:11:00,
2013-04-02 14:16:00,52.9,47.5,30.18,NNW,338,3.1,3.8,82,0.00,,---,0.00,VWS V14.01,2013-04-02 21:16:00,
2013-04-02 14:22:00,53.1,47.7,30.18,SW,225,2.7,6.0,82,0.00,,---,0.00,VWS V14.01,2013-04-02 21:22:00,
2013-04-02 14:27:00,52.7,47.0,30.18,NNW,338,3.1,6.0,81,0.00,,---,0.00,VWS V14.01,2013-04-02 21:27:00,
2013-04-02 14:32:00,52.3,46.7,30.18,NNW,338,6.0,6.0,81,0.00,,---,0.00,VWS V14.01,2013-04-02 21:32:00,
2013-04-02 14:37:00,52.3,46.7,30.18,NW,315,3.8,6.0,81,0.00,,---,0.00,VWS V14.01,2013-04-02 21:37:00,
2013-04-02 14:42:00,52.2,45.8,30.18,WNW,292,5.8,7.2,79,0.00,,---,0.00,VWS V14.01,2013-04-02 21:42:00,
2013-04-02 14:48:00,51.6,45.7,30.18,WNW,292,3.6,7.4,80,0.00,,---,0.00,VWS V14.01,2013-04-02 21:48:00,
2013-04-02 14:54:00,52.0,46.7,30.15,NNW,338,3.8,4.9,82,0.00,,---,0.00,VWS V14.01,2013-04-02 21:54:00,
2013-04-02 14:59:00,52.0,46.7,30.15,WNW,292,2.7,6.3,82,0.00,,---,0.00,VWS V14.01,2013-04-02 21:59:00,
2013-04-02 15:04:00,52.7,47.7,30.15,WNW,292,5.8,5.8,83,0.00,,---,0.00,VWS V14.01,2013-04-02 22:04:00,
2013-04-02 15:10:00,53.1,48.0,30.15,NNW,338,6.5,6.5,83,0.00,,---,0.00,VWS V14.01,2013-04-02 22:10:00,
2013-04-02 15:15:00,52.5,46.9,30.15,NW,315,4.5,6.7,81,0.00,,---,0.00,VWS V14.01,2013-04-02 22:15:00,
2013-04-02 15:20:00,52.5,46.9,30.15,NNW,338,3.8,6.7,81,0.00,,---,0.00,VWS V14.01,2013-04-02 22:20:00,
2013-04-02 15:25:00,53.1,47.4,30.15,NNW,338,2.5,7.6,81,0.00,,---,0.00,VWS V14.01,2013-04-02 22:25:00,
2013-04-02 15:30:00,53.4,47.4,30.15,NNW,338,2.7,2.7,80,0.00,,---,0.00,VWS V14.01,2013-04-02 22:30:00,
2013-04-02 15:35:00,53.1,47.4,30.15,NNW,338,1.6,6.5,81,0.00,,---,0.00,VWS V14.01,2013-04-02 22:35:00,
2013-04-02 15:41:00,53.4,48.1,30.15,WNW,292,5.6,5.6,82,0.00,,---,0.00,VWS V14.01,2013-04-02 22:41:00,
2013-04-02 15:46:00,53.8,48.1,30.15,NNW,338,5.6,6.3,81,0.00,,---,0.00,VWS V14.01,2013-04-02 22:46:00,
2013-04-02 15:52:00,53.1,46.7,30.15,WNW,292,3.6,6.5,79,0.00,,---,0.00,VWS V14.01,2013-04-02 22:52:00,
2013-04-02 15:57:00,54.0,47.9,30.15,North,0,4.0,6.5,80,0.00,,---,0.00,VWS V14.01,2013-04-02 22:57:00,
2013-04-02 16:02:00,53.8,47.1,30.15,NNW,338,4.0,6.7,78,0.00,,---,0.00,VWS V14.01,2013-04-02 23:02:00,
2013-04-02 16:08:00,53.8,47.1,30.15,NNW,338,7.4,7.4,78,0.00,,---,0.00,VWS V14.01,2013-04-02 23:08:00,
2013-04-02 16:13:00,53.4,46.7,30.15,NNW,338,1.1,5.4,78,0.00,,---,0.00,VWS V14.01,2013-04-02 23:13:00,
2013-04-02 16:18:00,53.8,47.1,30.15,NNE,22,5.4,5.8,78,0.00,,---,0.00,VWS V14.01,2013-04-02 23:18:00,
2013-04-02 16:23:00,54.1,47.4,30.15,NNW,338,2.2,5.6,78,0.00,,---,0.00,VWS V14.01,2013-04-02 23:23:00,
2013-04-02 16:29:00,53.4,46.7,30.15,NW,315,5.6,5.6,78,0.00,,---,0.00,VWS V14.01,2013-04-02 23:29:00,
2013-04-02 16:34:00,53.1,46.4,30.15,WNW,292,3.6,7.6,78,0.00,,---,0.00,VWS V14.01,2013-04-02 23:34:00,
2013-04-02 16:39:00,53.6,47.3,30.15,NNW,338,3.4,7.6,79,0.00,,---,0.00,VWS V14.01,2013-04-02 23:39:00,
2013-04-02 16:45:00,54.0,47.3,30.15,WNW,292,4.7,4.7,78,0.00,,---,0.00,VWS V14.01,2013-04-02 23:45:00,
2013-04-02 16:50:00,53.6,46.6,30.15,NNW,338,5.6,5.8,77,0.00,,---,0.00,VWS V14.01,2013-04-02 23:50:00,
2013-04-02 16:55:00,53.4,47.1,30.15,North,0,4.7,6.3,79,0.00,,---,0.00,VWS V14.01,2013-04-02 23:55:00,
2013-04-02 17:00:00,52.7,46.0,30.15,NNW,338,8.1,8.1,78,0.00,,---,0.00,VWS V14.01,2013-04-03 00:00:00,
2013-04-02 17:06:00,52.7,46.4,30.15,NNW,338,3.1,8.1,79,0.00,,---,0.00,VWS V14.01,2013-04-03 00:06:00,
2013-04-02 17:11:00,52.2,46.2,30.15,North,0,5.8,5.8,80,0.00,,---,0.00,VWS V14.01,2013-04-03 00:11:00,
2013-04-02 17:17:00,51.6,46.0,30.15,NNW,338,4.3,6.3,81,0.00,,---,0.00,VWS V14.01,2013-04-03 00:17:00,
2013-04-02 17:22:00,51.4,46.1,30.15,NNW,338,5.4,5.8,82,0.00,,---,0.00,VWS V14.01,2013-04-03 00:22:00,
2013-04-02 17:27:00,51.3,46.3,30.15,WNW,292,7.4,7.4,83,0.00,,---,0.00,VWS V14.01,2013-04-03 00:27:00,
2013-04-02 17:32:00,50.9,46.2,30.15,WNW,292,5.4,7.2,84,0.00,,---,0.00,VWS V14.01,2013-04-03 00:32:00,
2013-04-02 17:38:00,50.9,46.2,30.15,WNW,292,4.9,7.2,84,0.00,,---,0.00,VWS V14.01,2013-04-03 00:38:00,
2013-04-02 17:43:00,50.7,46.4,30.15,WNW,292,3.6,6.5,85,0.00,,---,0.00,VWS V14.01,2013-04-03 00:43:00,
2013-04-02 17:48:00,50.5,46.2,30.15,WNW,292,2.7,6.5,85,0.00,,---,0.00,VWS V14.01,2013-04-03 00:48:00,
2013-04-02 17:53:00,50.7,46.4,30.15,NNW,338,2.2,4.0,85,0.00,,---,0.00,VWS V14.01,2013-04-03 00:53:00,
2013-04-02 17:59:00,50.7,46.4,30.15,NNW,338,2.5,4.0,85,0.00,,---,0.00,VWS V14.01,2013-04-03 00:59:00,
2013-04-02 18:04:00,50.5,46.5,30.15,WNW,292,2.9,4.3,86,0.00,,---,0.00,VWS V14.01,2013-04-03 01:04:00,
2013-04-02 18:09:00,50.4,46.3,30.15,NNW,338,3.4,5.6,86,0.00,,---,0.00,VWS V14.01,2013-04-03 01:09:00,
2013-04-02 18:15:00,50.2,46.2,30.15,NW,315,5.4,5.4,86,0.00,,---,0.00,VWS V14.01,2013-04-03 01:15:00,
2013-04-02 18:20:00,50.2,46.5,30.15,NW,315,1.6,5.4,87,0.00,,---,0.00,VWS V14.01,2013-04-03 01:20:00,
2013-04-02 18:25:00,50.2,46.5,30.15,NNW,338,4.9,4.9,87,0.00,,---,0.00,VWS V14.01,2013-04-03 01:25:00,
2013-04-02 18:30:00,49.8,46.4,30.15,WNW,292,3.6,3.6,88,0.00,,---,0.00,VWS V14.01,2013-04-03 01:30:00,
2013-04-02 18:35:00,49.8,46.4,30.15,NNW,338,3.8,6.0,88,0.00,,---,0.00,VWS V14.01,2013-04-03 01:35:00,
2013-04-02 18:41:00,49.6,46.5,30.15,NW,315,2.9,2.9,89,0.00,,---,0.00,VWS V14.01,2013-04-03 01:41:00,
2013-04-02 18:46:00,49.6,46.5,30.15,NNW,338,2.7,5.4,89,0.00,,---,0.00,VWS V14.01,2013-04-03 01:46:00,
2013-04-02 18:52:00,49.6,46.5,30.15,NNW,338,3.8,3.8,89,0.00,,---,0.00,VWS V14.01,2013-04-03 01:52:00,
2013-04-02 18:57:00,49.8,46.7,30.15,NNW,338,3.8,3.8,89,0.00,,---,0.00,VWS V14.01,2013-04-03 01:57:00,
2013-04-02 19:02:00,49.8,47.0,30.15,NNW,338,1.3,3.1,90,0.00,,---,0.00,VWS V14.01,2013-04-03 02:02:00,
2013-04-02 19:08:00,49.8,47.0,30.15,North,0,2.7,3.4,90,0.00,,---,0.00,VWS V14.01,2013-04-03 02:08:00,
2013-04-02 19:13:00,49.6,46.8,30.15,WNW,292,5.8,5.8,90,0.00,,---,0.00,VWS V14.01,2013-04-03 02:13:00,
2013-04-02 19:18:00,49.6,46.8,30.15,NNW,338,2.9,5.8,90,0.00,,---,0.00,VWS V14.01,2013-04-03 02:18:00,
2013-04-02 19:23:00,49.6,46.8,30.15,WNW,292,2.0,3.4,90,0.00,,---,0.00,VWS V14.01,2013-04-03 02:23:00,
2013-04-02 19:28:00,49.6,46.8,30.15,NNW,338,2.2,6.0,90,0.00,,---,0.00,VWS V14.01,2013-04-03 02:28:00,
2013-04-02 19:33:00,49.6,47.1,30.15,NNW,338,2.7,6.0,91,0.00,,---,0.00,VWS V14.01,2013-04-03 02:33:00,
2013-04-02 19:39:00,49.6,47.1,30.15,NNW,338,2.7,6.0,91,0.00,,---,0.00,VWS V14.01,2013-04-03 02:39:00,
2013-04-02 19:44:00,49.5,47.0,30.15,WNW,292,3.1,4.0,91,0.00,,---,0.00,VWS V14.01,2013-04-03 02:44:00,
2013-04-02 19:49:00,49.6,47.1,30.15,West,270,2.0,4.7,91,0.00,,---,0.00,VWS V14.01,2013-04-03 02:49:00,
2013-04-02 19:55:00,49.6,47.1,30.15,WNW,292,3.8,5.8,91,0.00,,---,0.00,VWS V14.01,2013-04-03 02:55:00,
2013-04-02 20:00:00,49.6,47.1,30.15,NNW,338,1.1,5.8,91,0.00,,---,0.00,VWS V14.01,2013-04-03 03:00:00,
2013-04-02 20:05:00,49.6,47.4,30.15,WNW,292,0.0,6.3,92,0.00,,---,0.00,VWS V14.01,2013-04-03 03:05:00,
2013-04-02 20:11:00,49.6,47.1,30.15,NNW,338,3.6,4.9,91,0.00,,---,0.00,VWS V14.01,2013-04-03 03:11:00,
2013-04-02 20:17:00,49.6,47.1,30.15,NNW,338,3.1,4.9,91,0.00,,---,0.00,VWS V14.01,2013-04-03 03:17:00,
2013-04-02 20:22:00,49.6,47.4,30.15,NNW,338,3.4,3.4,92,0.00,,---,0.00,VWS V14.01,2013-04-03 03:22:00,
2013-04-02 20:27:00,49.6,47.4,30.15,WNW,292,2.2,4.0,92,0.00,,---,0.00,VWS V14.01,2013-04-03 03:27:00,
2013-04-02 20:32:00,49.6,47.4,30.15,WNW,292,1.6,3.1,92,0.00,,---,0.00,VWS V14.01,2013-04-03 03:32:00,
2013-04-02 20:38:00,49.5,47.2,30.15,NNW,338,1.6,3.8,92,0.00,,---,0.00,VWS V14.01,2013-04-03 03:38:00,
2013-04-02 20:43:00,49.6,47.4,30.15,NNW,338,2.9,2.9,92,0.00,,---,0.00,VWS V14.01,2013-04-03 03:43:00,
2013-04-02 20:49:00,49.6,47.4,30.15,WNW,292,1.1,2.9,92,0.00,,---,0.00,VWS V14.01,2013-04-03 03:49:00,
2013-04-02 20:54:00,49.6,47.4,30.15,WNW,292,2.5,2.9,92,0.00,,---,0.00,VWS V14.01,2013-04-03 03:54:00,
2013-04-02 20:59:00,49.6,47.4,30.15,ENE,68,1.3,2.9,92,0.00,,---,0.00,VWS V14.01,2013-04-03 03:59:00,
2013-04-02 21:00:00,49.6,47.4,30.15,NNW,338,3.8,3.8,92,0.00,,---,0.00,VWS V14.01,2013-04-03 04:00:00,
2013-04-02 21:03:00,49.5,47.2,30.15,NNW,338,0.0,5.4,92,0.00,,---,0.00,VWS V14.01,2013-04-03 04:03:00,
2013-04-02 21:04:00,49.5,47.2,30.15,ENE,68,0.0,5.4,92,0.00,,---,0.00,VWS V14.01,2013-04-03 04:04:00,
2013-04-02 21:09:00,49.5,47.2,30.15,NW,315,2.7,5.4,92,0.00,,---,0.00,VWS V14.01,2013-04-03 04:09:00,
2013-04-02 21:15:00,49.5,47.2,30.15,NNW,338,3.1,3.1,92,0.00,,---,0.00,VWS V14.01,2013-04-03 04:15:00,
2013-04-02 21:20:00,49.5,47.2,30.15,NNW,338,0.0,0.0,92,0.00,,---,0.00,VWS V14.01,2013-04-03 04:20:00,
2013-04-02 21:25:00,49.5,47.2,30.15,NNE,22,2.5,2.5,92,0.00,,---,0.00,VWS V14.01,2013-04-03 04:25:00,
2013-04-02 21:30:00,49.5,47.2,30.15,North,0,0.0,0.0,92,0.00,,---,0.00,VWS V14.01,2013-04-03 04:30:00,
2013-04-02 21:37:00,49.5,47.2,30.15,NNW,338,0.0,2.9,92,0.00,,---,0.00,VWS V14.01,2013-04-03 04:37:00,
2013-04-02 21:42:00,49.3,47.1,30.15,NW,315,0.0,2.5,92,0.00,,---,0.00,VWS V14.01,2013-04-03 04:42:00,
2013-04-02 21:47:00,49.1,46.9,30.15,NNW,338,1.1,3.4,92,0.00,,---,0.00,VWS V14.01,2013-04-03 04:47:00,
2013-04-02 21:52:00,49.1,46.9,30.15,WNW,292,1.1,1.6,92,0.00,,---,0.00,VWS V14.01,2013-04-03 04:52:00,
2013-04-02 21:58:00,49.3,47.1,30.15,NNW,338,0.0,1.6,92,0.00,,---,0.00,VWS V14.01,2013-04-03 04:58:00,
2013-04-02 22:03:00,49.3,47.1,30.15,NW,315,2.0,2.0,92,0.00,,---,0.00,VWS V14.01,2013-04-03 05:03:00,
2013-04-02 22:08:00,49.1,46.9,30.15,WNW,292,1.1,3.6,92,0.00,,---,0.00,VWS V14.01,2013-04-03 05:08:00,
2013-04-02 22:13:00,48.9,46.7,30.15,NNW,338,4.3,4.3,92,0.00,,---,0.00,VWS V14.01,2013-04-03 05:13:00,
2013-04-02 22:18:00,48.9,46.7,30.15,NNW,338,0.0,4.3,92,0.00,,---,0.00,VWS V14.01,2013-04-03 05:18:00,
2013-04-02 22:23:00,48.9,46.7,30.15,NW,315,2.0,2.7,92,0.00,,---,0.00,VWS V14.01,2013-04-03 05:23:00,
2013-04-02 22:29:00,48.9,46.7,30.15,WNW,292,0.0,2.7,92,0.00,,---,0.00,VWS V14.01,2013-04-03 05:29:00,
2013-04-02 22:34:00,49.1,47.2,30.15,WNW,292,0.0,2.2,93,0.00,,---,0.00,VWS V14.01,2013-04-03 05:34:00,
2013-04-02 22:39:00,49.1,47.2,30.15,NNW,338,0.0,2.2,93,0.00,,---,0.00,VWS V14.01,2013-04-03 05:39:00,
2013-04-02 22:44:00,49.1,47.2,30.15,NNE,22,0.0,0.9,93,0.00,,---,0.00,VWS V14.01,2013-04-03 05:44:00,
2013-04-02 22:49:00,48.9,47.0,30.15,East,90,0.0,0.9,93,0.00,,---,0.00,VWS V14.01,2013-04-03 05:49:00,
2013-04-02 22:54:00,48.9,47.0,30.15,NNE,22,0.0,0.0,93,0.00,,---,0.00,VWS V14.01,2013-04-03 05:54:00,
2013-04-02 23:00:00,48.9,47.0,30.15,ESE,112,0.0,0.0,93,0.00,,---,0.00,VWS V14.01,2013-04-03 06:00:00,
2013-04-02 23:05:00,48.9,47.0,30.15,East,90,0.0,0.0,93,0.00,,---,0.00,VWS V14.01,2013-04-03 06:05:00,
2013-04-02 23:10:00,49.1,47.2,30.15,East,90,0.0,0.0,93,0.00,,---,0.00,VWS V14.01,2013-04-03 06:10:00,
2013-04-02 23:15:00,48.9,47.0,30.15,NNW,338,0.0,0.0,93,0.00,,---,0.00,VWS V14.01,2013-04-03 06:15:00,
2013-04-02 23:20:00,48.9,47.0,30.15,NNE,22,0.0,0.9,93,0.00,,---,0.00,VWS V14.01,2013-04-03 06:20:00,
2013-04-02 23:25:00,48.7,46.8,30.15,NNE,22,0.0,0.0,93,0.00,,---,0.00,VWS V14.01,2013-04-03 06:25:00,
2013-04-02 23:30:00,48.7,46.8,30.15,North,0,1.6,1.6,93,0.00,,---,0.00,VWS V14.01,2013-04-03 06:30:00,
2013-04-02 23:36:00,48.7,46.8,30.15,NNE,22,0.0,1.6,93,0.00,,---,0.00,VWS V14.01,2013-04-03 06:36:00,
2013-04-02 23:41:00,48.7,46.8,30.15,East,90,1.3,1.3,93,0.00,,---,0.00,VWS V14.01,2013-04-03 06:41:00,
2013-04-02 23:46:00,48.7,46.8,30.15,East,90,0.0,1.3,93,0.00,,---,0.00,VWS V14.01,2013-04-03 06:46:00,
2013-04-02 23:51:00,48.7,46.8,30.15,East,90,0.0,0.0,93,0.00,,---,0.00,VWS V14.01,2013-04-03 06:51:00,
2013-04-02 23:57:00,48.6,46.6,30.15,North,0,0.0,0.0,93,0.00,,---,0.00,VWS V14.01,2013-04-03 06:57:00,